Wind_Speed
31 32 33 34 35 36 38 38 39 39 38 38 38 37 38 39 42 44 48 49 47 48 50 52 48 34 43 43 42 41 38 36 34 34 34 35 34 32 29 28 28 27 26
33 35 36 37 38 40 42 43 43 45 46 46 45 46 45 44 45 44 48 52 53 53 54 55 57 53 52 49 45 47 42 42 39 35 36 34 35 33 33 31 31 31 29
34 35 37 39 38 39 42 45 45 46 47 49 49 49 48 49 49 49 48 51 54 58 59 58 59 58 58 57 56 56 50 47 44 41 40 39 33 38 37 36 34 33 33
34 36 38 39 39 38 38 41 42 43 45 46 47 49 50 52 53 53 55 56 57 57 60 66 64 61 61 58 57 54 60 52 51 46 46 44 41 41 39 37 37 36 34
36 36 36 37 38 38 38 38 39 40 41 42 42 43 45 48 52 55 57 59 62 63 63 65 69 67 64 66 67 60 59 58 58 51 52 50 47 47 43 42 39 40 36
39 39 38 38 36 34 34 35 36 35 37 38 39 40 43 46 49 54 58 62 64 67 68 68 70 73 70 68 72 66 63 59 60 62 57 51 54 51 50 49 45 45 43
37 38 37 35 33 32 32 33 33 33 32 33 34 37 40 44 49 52 56 61 65 68 70 70 72 74 75 73 74 71 68 67 69 67 64 55 50 52 55 53 51 52 46
36 35 34 33 33 32 32 31 32 31 31 31 31 33 36 37 40 43 51 59 65 68 70 72 71 72 74 76 77 75 73 73 73 73 69 65 58 71 49 63 55 54 55
32 33 33 32 32 32 31 32 31 31 31 31 32 33 35 37 37 39 41 42 47 54 62 66 69 70 71 75 77 77 78 77 78 79 75 70 70 67 59 64 54 63 59
28 29 29 29 30 30 30 30 32 33 34 33 34 35 37 38 39 39 38 38 40 41 43 49 53 57 65 70 75 77 78 80 80 80 80 76 79 73 73 68 64 58 62
28 29 28 28 30 31 31 31 30 31 32 33 35 37 40 40 39 38 38 38 38 40 42 43 45 46 49 57 65 73 77 79 82 83 80 81 83 80 76 77 75 71 69
25 25 27 27 28 29 29 28 26 27 31 34 36 38 40 42 43 41 39 38 38 38 40 41 46 46 44 44 51 57 66 73 79 83 83 82 84 83 82 83 78 76 71
18 20 21 22 25 27 29 30 33 35 37 39 41 42 42 41 42 44 43 42 41 38 38 40 41 46 48 47 44 45 53 60 68 76 79 82 85 84 84 86 82 81 74
18 20 21 23 25 27 29 32 36 39 41 42 43 44 45 45 45 44 45 45 43 43 41 39 40 43 47 52 50 45 45 48 54 63 69 71 77 83 84 86 87 86 76
21 24 25 27 29 31 33 36 39 43 45 47 48 48 49 48 48 47 47 47 46 44 43 43 41 41 42 48 51 55 52 48 48 51 58 65 68 67 70 76 80 85 80
26 28 31 34 36 36 37 40 44 45 49 48 48 49 50 51 52 50 49 49 49 47 45 44 43 41 40 42 46 51 52 55 53 52 53 55 61 63 61 65 70 77 81
32 34 36 38 40 41 43 46 48 50 50 53 51 52 51 54 56 55 53 51 49 49 47 45 43 42 41 39 40 43 50 55 54 56 58 58 57 59 58 58 63 68 74
35 37 40 43 45 47 49 52 54 56 57 59 54 53 53 56 58 58 56 52 50 48 48 46 44 43 43 40 39 39 42 46 52 56 56 59 61 61 60 59 56 57 64
39 41 44 47 49 52 55 57 59 60 61 60 56 52 52 60 60 60 55 51 48 47 48 47 43 42 42 41 39 38 38 39 42 47 53 57 59 63 66 64 64 63 63
41 44 48 51 55 57 60 61 62 61 60 63 57 55 56 61 60 57 50 47 48 46 46 45 42 41 41 41 39 37 37 38 38 39 42 50 56 59 62 63 64 67 69
44 46 51 54 56 59 61 62 63 64 61 60 56 58 62 61 56 51 46 47 47 46 45 42 41 40 38 40 41 40 40 39 39 40 39 42 44 51 59 63 64 62 64
48 52 55 59 62 64 66 68 67 67 64 64 61 64 63 54 52 49 48 50 47 45 42 40 40 40 40 40 41 42 44 44 44 45 44 44 45 45 48 52 61 64 64
53 58 62 64 67 69 72 72 69 69 66 62 65 64 57 52 45 46 48 49 45 44 41 39 39 41 41 41 42 41 38 37 37 39 41 43 45 47 49 50 52 58 65
60 65 68 70 73 75 76 73 70 69 67 64 64 56 49 44 44 52 53 44 40 41 40 39 39 38 37 39 42 40 38 40 39 40 42 43 44 48 50 51 52 54 55
67 71 73 75 76 77 76 72 71 69 67 65 59 55 41 49 46 52 52 43 40 40 38 38 38 39 39 41 42 41 41 44 47 46 45 46 49 50 50 52 56 56 54
71 73 74 77 77 77 77 77 74 68 52 56 58 46 42 44 53 45 44 46 42 41 43 43 41 41 42 41 42 44 47 50 51 48 50 50 50 52 58 55 55 58 57
Wind_Direction
285 284 282 281 282 281 279 277 276 274 270 270 270 269 272 274 270 268 270 269 265 264 264 264 261 260 244 236 242 244 251 250 249 250 253 254 251 249 246 250 253 250 252
289 288 286 285 283 282 280 280 278 277 274 272 270 270 268 267 270 272 269 268 267 266 265 263 265 267 272 260 248 240 241 246 246 248 249 254 254 260 252 248 249 254 252
288 289 288 285 281 280 280 278 276 277 277 275 274 271 268 266 265 266 266 267 268 266 264 264 263 262 262 265 266 260 245 242 243 242 245 246 250 250 253 254 251 252 256
302 298 295 291 289 288 286 285 282 280 281 280 277 274 269 265 263 262 264 265 266 267 268 265 262 261 260 260 262 263 258 246 237 238 240 244 244 245 247 251 254 253 254
303 300 298 296 294 291 291 291 288 287 287 285 283 280 277 273 268 266 264 263 264 264 264 265 264 261 259 259 256 256 257 261 249 241 235 237 240 246 245 247 250 256 258
311 311 308 306 303 300 296 294 294 292 290 288 287 287 284 281 276 272 268 265 264 263 261 259 261 260 257 255 258 256 256 257 258 252 241 234 239 240 246 245 241 243 244
311 309 306 305 304 303 302 300 299 298 294 290 291 292 291 286 283 277 272 266 263 261 261 258 256 257 257 254 254 256 252 252 254 256 263 240 239 246 242 246 248 246 243
310 310 307 306 306 306 306 305 306 305 303 298 297 299 300 301 305 301 281 265 260 259 259 259 256 255 254 255 253 254 254 250 250 254 257 259 248 241 255 242 242 249 246
314 315 315 313 310 312 312 311 314 313 312 312 314 313 313 312 311 318 302 290 278 268 262 261 259 255 254 253 253 253 252 252 249 250 253 252 254 256 251 246 245 245 249
321 320 320 318 316 315 315 317 319 321 320 320 320 318 317 316 317 317 317 298 289 285 277 271 271 266 258 253 252 253 251 251 253 251 252 252 253 251 253 254 243 245 242
322 321 320 318 318 319 320 322 324 325 324 324 323 323 321 319 317 314 314 311 296 284 281 278 275 275 271 263 256 254 252 251 251 253 253 251 252 253 252 255 258 238 248
314 316 321 325 325 326 327 328 330 328 325 328 329 328 325 321 318 315 311 309 306 297 284 279 276 273 273 270 267 261 256 253 252 254 255 252 252 253 252 253 253 256 258
325 331 338 343 341 338 336 332 328 329 327 326 325 323 322 320 318 315 313 309 305 303 296 286 278 272 271 271 268 266 263 258 255 254 254 254 254 253 253 252 254 252 252
328 332 335 336 337 337 336 332 330 328 328 325 322 320 318 316 314 312 309 308 305 301 297 293 285 276 270 267 269 265 265 263 259 256 256 256 255 255 255 256 254 254 247
318 318 321 325 325 326 328 329 327 327 328 327 323 319 316 313 311 309 307 304 303 299 295 292 290 282 276 269 268 267 264 264 263 259 257 257 257 257 256 256 257 257 248
303 307 310 315 318 318 320 321 321 321 323 322 319 317 312 308 305 303 302 301 300 298 295 291 289 287 283 275 270 266 267 263 260 261 260 257 257 260 259 256 256 256 256
302 306 308 311 312 314 315 316 316 318 318 319 315 313 310 303 300 299 299 298 297 296 294 291 289 288 286 283 279 273 269 266 264 258 258 260 259 257 259 260 257 255 255
298 304 307 309 311 312 314 315 316 316 316 315 318 306 302 299 298 298 296 296 294 294 292 290 288 288 287 285 282 281 278 274 269 264 262 258 258 258 259 258 257 257 256
297 303 304 308 311 312 313 313 313 313 314 315 312 305 300 297 296 296 296 295 294 291 290 289 287 286 287 287 284 280 279 279 278 274 267 264 261 257 257 258 258 256 258
300 304 306 309 312 312 311 311 311 311 313 313 305 301 297 296 297 296 293 290 290 288 287 286 285 285 286 287 286 283 281 279 281 282 278 271 265 264 262 259 259 256 255
300 303 306 309 311 310 308 309 309 310 309 307 305 295 295 293 294 293 292 291 289 289 286 284 281 281 283 285 286 285 283 279 277 275 276 278 278 271 265 264 262 259 254
301 304 305 307 308 309 310 310 310 310 309 306 300 295 293 292 291 289 290 290 288 287 283 281 278 278 280 281 282 285 287 286 285 283 282 278 276 277 276 271 265 262 259
302 305 305 306 309 310 309 310 310 309 307 300 294 292 294 292 287 281 289 289 285 284 280 278 276 278 281 283 284 286 285 285 287 288 289 288 284 277 273 276 274 267 260
305 305 306 308 310 310 309 310 308 305 301 293 293 294 292 290 284 284 285 289 284 282 282 280 278 277 277 280 282 282 282 288 293 298 302 299 293 287 282 275 272 271 268
306 306 308 309 309 309 309 308 304 299 295 293 295 295 288 272 273 283 280 282 282 282 281 279 279 279 279 279 284 285 286 293 296 295 299 300 300 295 286 282 277 270 268
305 306 308 309 310 309 308 306 301 298 292 288 291 284 267 265 271 282 275 275 276 280 279 278 277 279 280 280 285 287 292 295 298 301 301 304 302 296 293 287 277 269 268
Height
5861 5860 5858 5857 5855 5854 5853 5852 5851 5849 5849 5848 5847 5847 5847 5847 5847 5846 5843 5843 5845 5845 5845 5845 5842 5836 5841 5846 5849 5852 5854 5855 5855 5855 5858 5859 5860 5860 5861 5864 5868 5869 5867
5852 5850 5848 5847 5846 5845 5842 5841 5840 5838 5838 5837 5836 5836 5836 5836 5835 5835 5832 5832 5831 5832 5832 5834 5834 5834 5831 5837 5840 5840 5845 5847 5846 5848 5850 5853 5854 5857 5854 5855 5858 5861 5864
5844 5842 5839 5837 5837 5836 5833 5829 5829 5828 5826 5824 5823 5823 5823 5824 5823 5821 5821 5818 5819 5818 5818 5820 5823 5824 5825 5827 5829 5829 5834 5837 5837 5836 5839 5842 5849 5845 5847 5849 5848 5852 5855
5836 5832 5830 5827 5826 5825 5823 5818 5818 5817 5814 5811 5810 5808 5809 5809 5809 5809 5806 5805 5804 5805 5804 5804 5807 5811 5813 5815 5816 5820 5821 5820 5824 5825 5826 5831 5836 5836 5838 5840 5842 5842 5846
5825 5823 5819 5815 5814 5812 5810 5808 5806 5806 5802 5799 5796 5794 5794 5794 5795 5795 5792 5790 5787 5789 5790 5788 5788 5792 5797 5799 5802 5807 5808 5809 5812 5817 5814 5816 5820 5825 5828 5830 5833 5832 5836
5813 5812 5808 5805 5803 5802 5799 5797 5795 5794 5790 5786 5783 5781 5779 5778 5778 5777 5776 5774 5772 5770 5771 5773 5773 5774 5779 5784 5784 5790 5792 5794 5795 5796 5805 5806 5809 5809 5813 5816 5819 5821 5824
5807 5804 5801 5797 5795 5792 5790 5787 5785 5783 5781 5777 5774 5770 5766 5764 5761 5760 5758 5756 5754 5752 5749 5751 5755 5756 5759 5765 5768 5772 5777 5780 5780 5783 5784 5791 5799 5798 5799 5803 5809 5808 5814
5799 5796 5793 5789 5787 5784 5782 5779 5775 5773 5770 5767 5763 5758 5753 5749 5744 5740 5737 5735 5733 5733 5731 5729 5733 5736 5740 5743 5749 5754 5757 5761 5764 5766 5771 5779 5784 5784 5784 5788 5793 5796 5800
5794 5790 5786 5783 5780 5776 5773 5769 5766 5764 5760 5756 5750 5746 5741 5738 5733 5728 5722 5717 5714 5713 5712 5711 5712 5716 5719 5723 5726 5731 5734 5740 5746 5749 5753 5760 5763 5767 5771 5776 5779 5786 5785
5787 5783 5780 5777 5773 5769 5766 5763 5759 5755 5751 5748 5743 5739 5734 5729 5723 5718 5713 5707 5704 5701 5698 5697 5696 5697 5700 5703 5705 5708 5715 5718 5722 5728 5734 5738 5742 5751 5758 5764 5768 5771 5772
5781 5777 5774 5771 5767 5763 5759 5756 5752 5749 5744 5740 5736 5730 5725 5720 5714 5709 5703 5698 5694 5691 5688 5685 5683 5683 5683 5685 5687 5688 5693 5699 5703 5705 5713 5717 5721 5729 5738 5743 5750 5753 5753
5777 5773 5770 5767 5762 5758 5753 5750 5746 5742 5738 5732 5727 5722 5717 5712 5707 5701 5695 5689 5684 5680 5678 5675 5672 5671 5670 5671 5672 5673 5675 5679 5682 5685 5690 5697 5700 5707 5716 5722 5730 5736 5738
5771 5768 5765 5762 5758 5753 5749 5744 5739 5735 5731 5726 5721 5715 5709 5704 5698 5692 5686 5680 5675 5670 5666 5664 5662 5659 5657 5657 5659 5660 5661 5662 5665 5667 5670 5675 5681 5687 5695 5700 5708 5715 5724
5766 5763 5759 5756 5752 5748 5743 5738 5732 5727 5722 5717 5712 5706 5700 5694 5688 5683 5677 5671 5665 5660 5655 5651 5650 5648 5646 5643 5644 5648 5649 5649 5650 5652 5653 5655 5661 5667 5673 5677 5684 5690 5703
5760 5756 5752 5748 5744 5739 5735 5730 5724 5718 5713 5708 5702 5697 5691 5685 5678 5673 5667 5661 5656 5650 5645 5641 5638 5635 5633 5631 5629 5630 5634 5636 5636 5637 5639 5638 5641 5647 5651 5655 5660 5665 5678
5752 5749 5744 5740 5735 5730 5725 5720 5715 5709 5703 5698 5692 5686 5680 5673 5667 5661 5656 5650 5644 5639 5634 5629 5626 5623 5621 5618 5615 5615 5614 5617 5621 5622 5622 5624 5627 5627 5630 5634 5637 5643 5649
5744 5739 5735 5731 5726 5721 5716 5710 5705 5698 5692 5685 5679 5674 5669 5661 5654 5648 5643 5638 5633 5627 5622 5618 5614 5610 5607 5605 5603 5601 5599 5598 5601 5604 5605 5606 5610 5612 5612 5614 5618 5622 5626
5733 5729 5725 5719 5714 5709 5704 5697 5692 5686 5680 5673 5667 5659 5653 5646 5640 5634 5628 5624 5620 5615 5610 5605 5601 5598 5594 5592 5590 5588 5586 5584 5583 5585 5587 5588 5590 5592 5594 5598 5601 5603 5605
5722 5718 5713 5708 5702 5696 5689 5683 5678 5671 5664 5657 5649 5643 5638 5628 5623 5617 5612 5608 5605 5601 5596 5592 5588 5585 5581 5579 5577 5576 5574 5571 5568 5567 5568 5569 5570 5572 5576 5580 5581 5584 5585
5711 5707 5701 5695 5688 5682 5674 5667 5660 5653 5647 5640 5631 5625 5620 5610 5604 5599 5596 5592 5588 5586 5582 5579 5575 5571 5569 5566 5565 5563 5562 5560 5558 5554 5552 5551 5552 5552 5554 5557 5561 5564 5566
5700 5694 5688 5681 5674 5666 5658 5651 5642 5634 5627 5621 5617 5610 5601 5595 5589 5584 5579 5576 5573 5571 5568 5565 5562 5560 5557 5553 5551 5550 5548 5547 5546 5544 5542 5539 5536 5534 5534 5535 5539 5543 5546
5687 5681 5675 5668 5661 5652 5642 5634 5627 5619 5610 5602 5595 5588 5582 5575 5572 5569 5565 5561 5558 5556 5554 5552 5549 5547 5545 5542 5540 5538 5535 5532 5530 5529 5528 5526 5525 5522 5519 5517 5517 5521 5525
5673 5666 5659 5653 5644 5634 5625 5618 5609 5600 5592 5584 5575 5569 5564 5559 5555 5554 5552 5548 5544 5542 5540 5539 5537 5534 5531 5529 5527 5525 5523 5521 5518 5515 5512 5509 5508 5507 5506 5502 5500 5499 5502
5657 5650 5643 5635 5626 5617 5607 5597 5589 5582 5574 5565 5555 5551 5548 5545 5541 5539 5538 5535 5532 5529 5526 5524 5523 5522 5519 5516 5512 5511 5509 5507 5505 5502 5499 5495 5492 5489 5488 5487 5485 5483 5482
5641 5632 5624 5615 5606 5596 5587 5578 5567 5557 5551 5544 5539 5535 5530 5531 5528 5525 5523 5521 5519 5516 5514 5511 5509 5507 5506 5502 5499 5497 5496 5493 5490 5488 5485 5482 5477 5474 5471 5469 5467 5466 5465
5623 5614 5603 5594 5584 5575 5564 5556 5546 5536 5530 5523 5522 5518 5516 5514 5512 5509 5508 5506 5504 5502 5499 5497 5495 5494 5491 5488 5486 5484 5481 5478 5474 5472 5468 5464 5461 5456 5452 5450 5449 5447 5446